Weather History for KCDH - March, 2013

Change the Weather History Date:

Friday, March 8, 2013

  Actual Average Record
Temperature  
Mean Temperature 50 °F -  
Max Temperature 69 °F 67 °F 86 °F (1974)
Min Temperature 32 °F 39 °F 20 °F (1943)
Degree Days  
Heating Degree Days 14    
Moisture  
Dew Point 32 °F    
Average Humidity 53    
Maximum Humidity 100    
Minimum Humidity 21    
Precipitation  
Precipitation 0.00 in - - ()
Sea Level Pressure  
Sea Level Pressure 30.24 in    
Wind  
Wind Speed 2 mph (ESE)    
Max Wind Speed 10 mph    
Max Gust Speed 17 mph    
Visibility 10 miles    
Events Rain    
Averages and records for this station are not official NWS values.
T = Trace of Precipitation, MM = Missing Value Source: NWS Daily Summary

Daily Weather History Graph

Daily Weather History Graph

Search for Another Location

Airport or City:

Trip Planner

Search our weather history database for the weather conditions in past years. The results will help you decide how hot, cold, wet, or windy it might be!

Date:

Astronomy

Mar. 08, 2013 Rise Set
Actual Time 6:30 AM CST 6:13 PM CST
Civil Twilight 6:05 AM CST 6:38 PM CST
Nautical Twilight 5:36 AM CST 7:07 PM CST
Astronomical Twilight 5:07 AM CST 7:36 PM CST
Moon 4:07 AM CST (3/8) 3:16 PM CST (3/8)
Length of Visible Light 12h 33m
Length of Day
11h 43m
Waning Crescent, 11% of the Moon is Illuminated
Mar 8
Waning Crescent
Mar 11
New
Mar 19
First Quarter
Mar 27
Full
Apr 2
Last Quarter

Hourly Weather History & Observations

Time (CST) Temp. Dew Point Humidity Pressure Visibility Wind Dir Wind Speed Gust Speed Precip Events Conditions
12:15 AM 37.4 °F 32.0 °F 81% 30.27 in 10.0 mi Calm Calm - N/A   Clear
12:35 AM 37.4 °F 32.0 °F 81% 30.26 in 10.0 mi Calm Calm - N/A   Clear
1:15 AM 35.6 °F 32.0 °F 87% 30.26 in 10.0 mi Calm Calm - N/A   Clear
1:35 AM 35.6 °F 32.0 °F 87% 30.27 in 10.0 mi Calm Calm - N/A   Clear
1:55 AM 35.6 °F 32.0 °F 87% 30.27 in 10.0 mi Calm Calm - N/A   Clear
2:15 AM 33.8 °F 32.0 °F 93% 30.25 in 10.0 mi Calm Calm - N/A   Clear
2:35 AM 33.8 °F 32.0 °F 93% 30.25 in 10.0 mi Calm Calm - N/A   Clear
2:55 AM 35.6 °F 32.0 °F 87% 30.26 in 10.0 mi Calm Calm - N/A   Clear
3:15 AM 33.8 °F 32.0 °F 93% 30.26 in 10.0 mi Calm Calm - N/A   Clear
3:35 AM 32.0 °F 32.0 °F 100% 30.26 in 10.0 mi Calm Calm - N/A   Clear
3:55 AM 32.0 °F 30.2 °F 93% 30.26 in 10.0 mi Calm Calm - N/A   Clear
4:15 AM 32.0 °F 30.2 °F 93% 30.26 in 10.0 mi Calm Calm - N/A   Clear
4:35 AM 32.0 °F 30.2 °F 93% 30.27 in 9.0 mi Calm Calm - N/A   Clear
5:15 AM 32.0 °F 30.2 °F 93% 30.27 in 10.0 mi Calm Calm - N/A   Clear
5:35 AM 32.0 °F 30.2 °F 93% 30.29 in 9.0 mi Calm Calm - N/A   Clear
5:55 AM 32.0 °F 30.2 °F 93% 30.31 in 8.0 mi Calm Calm - N/A   Clear
6:15 AM 32.0 °F 28.4 °F 87% 30.31 in 10.0 mi Calm Calm - N/A   Clear
6:35 AM 32.0 °F 28.4 °F 87% 30.30 in 9.0 mi Calm Calm - N/A   Clear
6:55 AM 32.0 °F 30.2 °F 93% 30.30 in 7.0 mi Calm Calm - N/A   Clear
7:15 AM 32.0 °F 32.0 °F 100% 30.32 in 8.0 mi Calm Calm - N/A   Clear
7:35 AM 33.8 °F 32.0 °F 93% 30.32 in 7.0 mi Calm Calm - N/A   Clear
7:55 AM 37.4 °F 32.0 °F 81% 30.32 in 8.0 mi Calm Calm - N/A   Clear
8:15 AM 41.0 °F 33.8 °F 76% 30.33 in 10.0 mi Calm Calm - N/A   Clear
8:35 AM 44.6 °F 33.8 °F 66% 30.33 in 10.0 mi Calm Calm - N/A   Clear
8:55 AM 46.4 °F 32.0 °F 57% 30.33 in 10.0 mi Calm Calm - N/A   Clear
9:15 AM 50.0 °F 32.0 °F 50% 30.33 in 10.0 mi East 3.5 mph - N/A   Clear
9:35 AM 51.8 °F 32.0 °F 47% 30.34 in 10.0 mi ESE 3.5 mph - N/A   Clear
9:55 AM 55.4 °F 32.0 °F 41% 30.34 in 10.0 mi East 3.5 mph - N/A   Clear
10:15 AM 57.2 °F 33.8 °F 41% 30.33 in 10.0 mi SE 4.6 mph - N/A   Clear
10:35 AM 59.0 °F 32.0 °F 36% 30.33 in 10.0 mi Calm Calm - N/A   Clear
10:55 AM 59.0 °F 32.0 °F 36% 30.32 in 10.0 mi South 3.5 mph - N/A   Clear
11:15 AM 60.8 °F 32.0 °F 34% 30.32 in 10.0 mi SSE 4.6 mph - N/A   Clear
11:35 AM 62.6 °F 32.0 °F 32% 30.31 in 10.0 mi SSE 3.5 mph - N/A   Clear
11:55 AM 64.4 °F 32.0 °F 30% 30.30 in 10.0 mi South 4.6 mph - N/A   Clear
12:15 PM 66.2 °F 32.0 °F 28% 30.30 in 10.0 mi NE 4.6 mph - N/A   Clear
12:35 PM 66.2 °F 32.0 °F 28% 30.28 in 10.0 mi Calm Calm - N/A   Clear
12:55 PM 68.0 °F 32.0 °F 26% 30.28 in 10.0 mi Calm Calm - N/A   Clear
1:15 PM 68.0 °F 32.0 °F 26% 30.27 in 10.0 mi Calm Calm - N/A   Clear
1:35 PM 68.0 °F 32.0 °F 26% 30.24 in 10.0 mi SSE 8.1 mph - N/A   Clear
1:55 PM 66.2 °F 32.0 °F 28% 30.23 in 10.0 mi ENE 4.6 mph - N/A   Clear
2:15 PM 68.0 °F 32.0 °F 26% 30.22 in 10.0 mi ESE 5.8 mph - N/A   Clear
2:35 PM 69.8 °F 32.0 °F 25% 30.22 in 10.0 mi ESE 6.9 mph - N/A   Clear
2:55 PM 68.0 °F 32.0 °F 26% 30.21 in 10.0 mi SE 10.4 mph 16.1 mph N/A   Clear
3:15 PM 68.0 °F 32.0 °F 26% 30.19 in 10.0 mi SE 9.2 mph - N/A   Clear
3:35 PM 68.0 °F 30.2 °F 24% 30.19 in 10.0 mi SSE 9.2 mph - N/A   Clear
3:55 PM 69.8 °F 32.0 °F 25% 30.17 in 10.0 mi ESE 9.2 mph - N/A   Clear
4:15 PM 68.0 °F 30.2 °F 24% 30.16 in 10.0 mi ESE 6.9 mph - N/A   Clear
4:35 PM 68.0 °F 28.4 °F 23% 30.15 in 10.0 mi ESE 6.9 mph 16.1 mph N/A   Clear
4:55 PM 68.0 °F 26.6 °F 21% 30.15 in 10.0 mi ESE 8.1 mph - N/A   Clear
5:15 PM 66.2 °F 26.6 °F 23% 30.15 in 10.0 mi ESE 10.4 mph 17.3 mph N/A   Clear
5:35 PM 66.2 °F 26.6 °F 23% 30.15 in 10.0 mi ESE 5.8 mph - N/A   Clear
5:55 PM 64.4 °F 26.6 °F 24% 30.16 in 10.0 mi ESE 4.6 mph - N/A   Clear
6:15 PM 62.6 °F 28.4 °F 27% 30.16 in 10.0 mi Calm Calm - N/A   Clear
6:35 PM 60.8 °F 28.4 °F 29% 30.16 in 10.0 mi Calm Calm - N/A   Clear
6:55 PM 59.0 °F 30.2 °F 34% 30.17 in 10.0 mi Calm Calm - N/A   Clear
7:15 PM 60.8 °F 32.0 °F 34% 30.16 in 10.0 mi ESE 3.5 mph - N/A   Clear
7:35 PM 60.8 °F 32.0 °F 34% 30.17 in 10.0 mi East 3.5 mph - N/A   Clear
7:55 PM 59.0 °F 32.0 °F 36% 30.16 in 10.0 mi East 5.8 mph - N/A   Clear
8:15 PM 59.0 °F 32.0 °F 36% 30.18 in 10.0 mi ESE 4.6 mph - N/A   Clear
8:35 PM 59.0 °F 32.0 °F 36% 30.18 in 10.0 mi Calm Calm - N/A   Clear
9:15 PM 59.0 °F 32.0 °F 36% 30.18 in 10.0 mi East 3.5 mph - N/A   Clear
9:35 PM 57.2 °F 32.0 °F 38% 30.17 in 10.0 mi East 4.6 mph - N/A   Partly Cloudy
9:55 PM 57.2 °F 33.8 °F 41% 30.16 in 10.0 mi East 4.6 mph - N/A   Clear
10:15 PM 57.2 °F 33.8 °F 41% 30.14 in 10.0 mi East 5.8 mph - N/A Rain Light Rain
10:35 PM 57.2 °F 35.6 °F 44% 30.15 in 10.0 mi Calm Calm - N/A   Mostly Cloudy
10:55 PM 57.2 °F 33.8 °F 41% 30.14 in 10.0 mi ESE 3.5 mph - N/A Rain Light Rain
11:15 PM 55.4 °F 35.6 °F 47% 30.12 in 10.0 mi ESE 4.6 mph - N/A Rain Light Rain
11:35 PM 57.2 °F 33.8 °F 41% 30.13 in 10.0 mi Calm Calm - N/A   Partly Cloudy
11:55 PM 55.4 °F 37.4 °F 51% 30.13 in 10.0 mi Calm Calm - N/A Rain Light Rain